#timestamp,LO_Frequency,Hit,StdDev 
1513897215.0,286047004.3,Y
1513897215.9,286047004.3,P
1513897235.7,286047002.5,N
1513897255.6,286047002.3,N
1513897275.4,286047000.3,N
1513897295.3,286046998.2,N
1513897315.1,286046998.6,N
1513897335.8,286046999.5,N
1513897355.7,286046999.1,N
1513897375.5,286047001.2,N
1513897395.4,286047000.6,N
1513897415.2,286047000.7,N
1513897435.0,286046998.8,N
1513897435.9,286046998.8,N
1513897455.8,286046998.9,N
1513897475.6,286046999.1,N
1513897495.4,286046996.6,N
1513897515.3,286046997.9,N
1513897535.1,286046998.0,N
1513897555.9,286046995.0,N
1513897575.7,286046996.8,N
1513897595.5,286046997.9,N
1513897615.4,286046995.3,N
1513897635.2,286046996.4,N
1513897655.0,286046996.0,N
1513897655.9,286046996.0,N
1513897675.8,286046996.4,N
1513897695.6,286046996.2,N
1513897715.5,286046993.7,N
1513897735.3,286046994.2,N
1513897755.1,286046994.1,N
1513897775.9,286046994.3,N
1513897795.7,286046991.7,Y
1513897815.6,286046995.5,P
1513897835.4,286046995.0,P
1513897855.2,286046996.8,N
1513897875.1,286046995.5,Y
1513897876.0,286046995.5,P
1513897895.8,286046998.6,P
1513897915.6,286047000.7,N
1513897935.5,286047001.2,N
1513897955.3,286046998.7,N
1513897975.2,286046998.3,N
1513897995.9,286046998.5,N
1513898015.7,286046998.5,N
1513898035.6,286046999.3,N
1513898055.4,286046998.1,N
1513898075.2,286046999.0,N
1513898095.1,286046996.6,N
1513898096.0,286046996.6,N
1513898115.8,286046996.5,N
1513898135.7,286046996.8,N
1513898155.5,286046996.8,N
1513898175.3,286046997.2,N
1513898195.2,286046996.9,N
1513898215.0,286046998.4,N
1513898215.9,286046998.4,N
1513898235.7,286046998.3,N
1513898255.6,286047001.0,N
1513898275.4,286046997.2,N
1513898295.3,286046997.3,N
1513898315.1,286046996.6,N
1513898316.0,286046996.6,N
1513898335.8,286046996.8,N
1513898355.7,286046997.2,N
1513898375.5,286046997.8,N
1513898395.3,286046997.5,N
1513898415.2,286046996.1,N
1513898435.0,286046993.3,Y
1513898435.9,286046993.3,P
1513898455.8,286046997.7,N
1513898475.6,286046997.9,N
1513898495.4,286046997.2,N
1513898515.3,286046997.9,N
1513898535.1,286046997.0,N
1513898555.9,286046994.9,Y
1513898575.7,286046998.2,P
1513898595.5,286047000.7,N
1513898615.4,286046998.9,N
1513898635.2,286046998.7,N
1513898655.0,286046998.6,N
1513898655.9,286046998.6,N
1513898675.8,286047000.6,N
1513898695.6,286046999.9,N
1513898715.5,286046999.0,N
1513898735.3,286046999.4,N
1513898755.1,286046996.9,Y
1513898775.9,286046997.7,P
1513898795.7,286046999.6,N
1513898815.6,286046999.3,N
1513898835.4,286047001.2,N
1513898855.2,286047000.7,N
1513898875.1,286047000.2,N
1513898876.0,286047000.2,N
1513898895.8,286046998.7,N
1513898915.6,286046998.9,N
1513898935.5,286046999.1,N
1513898955.3,286046999.6,N
1513898975.2,286046997.7,N
1513898995.9,286046996.7,Y
1513899015.7,286046998.3,P
1513899035.6,286046999.4,N
1513899055.4,286046998.3,P
1513899075.2,286046996.5,Y
1513899095.1,286046998.8,P
1513899096.0,286046998.8,P
1513899115.8,286046999.2,P
1513899135.7,286046999.3,Y
1513899155.5,286046998.1,P
1513899175.4,286047000.5,N
1513899195.2,286046999.5,N
1513899215.0,286046999.6,N
1513899215.9,286046999.6,N
1513899235.8,286047001.2,N
1513899255.6,286046998.1,N
1513899275.5,286047000.9,N
1513899295.3,286047002.7,N
1513899315.1,286047000.4,N
1513899335.9,286047002.1,N
1513899355.7,286047002.5,N
1513899375.5,286047002.2,N
1513899395.4,286047001.9,N
1513899415.2,286046999.8,N
1513899435.1,286047001.8,N
1513899436.0,286047001.8,N
1513899455.8,286047002.6,N
1513899475.6,286047001.7,N
1513899495.5,286047001.5,N
1513899515.3,286047002.3,N
1513899535.1,286047006.7,Y
1513899555.9,286047026.5,P
1513899575.7,286047023.8,N
1513899595.6,286047024.6,N
1513899615.4,286047020.7,N
1513899635.2,286047018.5,N
1513899655.1,286047012.9,N
1513899656.0,286047012.9,N
1513899675.2,286047010.9,N
1513899695.9,286047010.3,N
1513899715.7,286047006.8,N
1513899735.6,286047005.6,N
1513899755.4,286047005.7,N
1513899775.3,286047002.9,N
1513899795.1,286047003.9,N
1513899796.0,286047003.9,N
1513899815.8,286047003.7,N
1513899835.7,286047002.6,N
1513899855.5,286047001.6,N
1513899875.4,286047004.3,N
1513899895.2,286047003.5,N
1513899915.0,286047001.3,N
1513899915.9,286047001.3,N
1513899935.8,286047004.3,N
1513899955.6,286047002.0,N
1513899975.5,286047000.0,N
1513899995.3,286047000.1,N
1513900015.1,286047000.7,N
1513900035.9,286046999.9,N
1513900055.7,286047001.9,N
1513900075.6,286046999.7,N
1513900095.4,286047002.2,N
1513900115.2,286047000.6,N
1513900135.1,286046999.7,N
1513900136.0,286046999.7,N
1513900155.8,286047002.6,N
1513900175.7,286047001.5,N
1513900195.5,286047004.4,N
1513900215.3,286047002.1,N
1513900235.2,286047001.6,N
1513900255.0,286047002.5,N
1513900255.9,286047002.5,N
1513900275.8,286046999.8,N
1513900295.6,286047002.6,N
1513900315.4,286047002.5,N
1513900335.3,286047001.8,N
1513900355.1,286047001.6,N
1513900375.9,286047003.7,N
1513900395.7,286047006.0,Y
1513900415.5,286047004.4,P
1513900435.4,286047003.7,N
1513900455.2,286047001.3,N
1513900475.1,286047002.6,N
1513900476.0,286047002.6,N
1513900495.8,286047002.8,N
1513900515.6,286047004.0,Y
1513900535.5,286046998.8,P
1513900555.3,286046997.2,N
1513900575.2,286046997.2,N
1513900595.9,286046997.4,N
1513900615.7,286046995.3,N
1513900635.6,286046995.6,N
1513900655.4,286046998.0,N
1513900675.2,286046997.2,N
1513900695.1,286046999.5,N
1513900696.0,286046999.5,N
1513900715.8,286046999.2,N
1513900735.7,286046996.6,N
1513900755.5,286046998.4,N
1513900775.3,286046999.2,N
1513900795.2,286046997.4,N
